| time (UTC) | temp C | wind direction | speed KPH | gust KPH | rain 1hr cm | rain 24hr cm | rain mn cm | humidity % | barometer mb |
| 20260506224223 | 23 | 44 | 4.8 | 8.0 | 0.00 | 0.00 | 0.00 | 74 | 1011.0 |
| 20260506223723 | 24 | 66 | 8.0 | 12.9 | 0.00 | 0.00 | 0.00 | 73 | 1011.0 |
| 20260506223223 | 24 | 88 | 3.2 | 9.7 | 0.00 | 0.00 | 0.00 | 73 | 1011.0 |
| 20260506222723 | 25 | 67 | 3.2 | 8.0 | 0.00 | 0.00 | 0.00 | 73 | 1011.0 |
| 20260506222223 | 25 | 198 | 1.6 | 11.3 | 0.00 | 0.00 | 0.00 | 75 | 1011.0 |
| 20260506221723 | 25 | 72 | 4.8 | 11.3 | 0.00 | 0.00 | 0.00 | 74 | 1011.0 |
| 20260506221224 | 25 | 131 | 0.0 | 8.0 | 0.00 | 0.00 | 0.00 | 74 | 1011.0 |
| 20260506220723 | 25 | 104 | 3.2 | 9.7 | 0.00 | 0.00 | 0.00 | 73 | 1011.0 |
| 20260506220223 | 26 | 63 | 4.8 | 6.4 | 0.00 | 0.00 | 0.00 | 73 | 1011.0 |
| 20260506215723 | 26 | 42 | 4.8 | 8.0 | 0.00 | 0.00 | 0.00 | 73 | 1011.0 |
| 20260506215223 | 26 | 94 | 8.0 | 8.0 | 0.00 | 0.00 | 0.00 | 73 | 1011.0 |
| 20260506214724 | 27 | 63 | 4.8 | 9.7 | 0.00 | 0.00 | 0.00 | 72 | 1010.0 |
| 20260506214224 | 27 | 20 | 4.8 | 22.5 | 0.00 | 0.00 | 0.00 | 73 | 1011.0 |
| 20260506213724 | 28 | 61 | 6.4 | 14.5 | 0.00 | 0.00 | 0.00 | 71 | 1010.0 |
| 20260506213223 | 28 | 64 | 4.8 | 8.0 | 0.00 | 0.00 | 0.00 | 70 | 1010.0 |
| 20260506212723 | 27 | 87 | 3.2 | 6.4 | 0.00 | 0.00 | 0.00 | 71 | 1010.0 |
| 20260506212224 | 27 | 51 | 6.4 | 9.7 | 0.00 | 0.00 | 0.00 | 73 | 1011.0 |
| 20260506211724 | 27 | 43 | 3.2 | 8.0 | 0.00 | 0.00 | 0.00 | 75 | 1010.0 |
| 20260506211223 | 27 | 66 | 3.2 | 8.0 | 0.00 | 0.00 | 0.00 | 75 | 1010.0 |
| 20260506210723 | 27 | 87 | 3.2 | 11.3 | 0.00 | 0.00 | 0.00 | 75 | 1010.0 |
| 20260506210224 | 28 | 61 | 6.4 | 8.0 | 0.00 | 0.00 | 0.00 | 74 | 1011.0 |
| 20260506205723 | 28 | 0 | 3.2 | 8.0 | 0.00 | 0.00 | 0.00 | 74 | 1011.0 |
| 20260506205223 | 28 | 43 | 4.8 | 4.8 | 0.00 | 0.00 | 0.00 | 74 | 1011.0 |
| 20260506204723 | 28 | 195 | 0.0 | 4.8 | 0.00 | 0.00 | 0.00 | 73 | 1011.0 |
| 20260506204223 | 28 | 92 | 3.2 | 8.0 | 0.00 | 0.00 | 0.00 | 73 | 1011.0 |
| 20260506203723 | 28 | 92 | 3.2 | 8.0 | 0.00 | 0.00 | 0.00 | 73 | 1011.0 |
| 20260506203224 | 30 | 54 | 4.8 | 8.0 | 0.00 | 0.00 | 0.00 | 70 | 1011.0 |
| 20260506202723 | 30 | 54 | 4.8 | 8.0 | 0.00 | 0.00 | 0.00 | 70 | 1011.0 |
| 20260506202223 | 29 | 66 | 3.2 | 8.0 | 0.00 | 0.00 | 0.00 | 72 | 1011.0 |
| 20260506201723 | 29 | 66 | 3.2 | 8.0 | 0.00 | 0.00 | 0.00 | 72 | 1011.0 |
| 20260506201223 | 28 | 47 | 6.4 | 8.0 | 0.00 | 0.00 | 0.00 | 73 | 1011.0 |
| 20260506200724 | 28 | 47 | 6.4 | 8.0 | 0.00 | 0.00 | 0.00 | 73 | 1011.0 |
| 20260506200223 | 28 | 81 | 0.0 | 4.8 | 0.00 | 0.00 | 0.00 | 74 | 1011.0 |
| 20260506195723 | 28 | 41 | 4.8 | 8.0 | 0.00 | 0.00 | 0.00 | 75 | 1011.0 |
| 20260506195225 | 27 | 33 | 3.2 | 8.0 | 0.00 | 0.00 | 0.00 | 75 | 1011.0 |
| 20260506194725 | 28 | 34 | 8.0 | 9.7 | 0.00 | 0.00 | 0.00 | 74 | 1011.0 |
| 20260506194224 | 28 | 51 | 6.4 | 8.0 | 0.00 | 0.00 | 0.00 | 74 | 1011.0 |
| 20260506193723 | 27 | 44 | 0.0 | 8.0 | 0.00 | 0.00 | 0.00 | 76 | 1011.0 |
| 20260506193226 | 28 | 53 | 3.2 | 6.4 | 0.00 | 0.00 | 0.00 | 74 | 1011.0 |
| 20260506192725 | 27 | 139 | 1.6 | 6.4 | 0.00 | 0.00 | 0.00 | 77 | 1011.0 |
| 20260506192224 | 28 | 64 | 3.2 | 6.4 | 0.00 | 0.00 | 0.00 | 77 | 1011.0 |
| 20260506191726 | 27 | 87 | 4.8 | 8.0 | 0.00 | 0.00 | 0.00 | 77 | 1011.0 |
| 20260506191225 | 27 | 75 | 1.6 | 8.0 | 0.00 | 0.00 | 0.00 | 77 | 1012.0 |
| 20260506190726 | 27 | 98 | 4.8 | 8.0 | 0.00 | 0.00 | 0.00 | 77 | 1012.0 |
| 20260506190226 | 27 | 74 | 1.6 | 6.4 | 0.00 | 0.00 | 0.00 | 76 | 1011.0 |
| 20260506185723 | 27 | 95 | 0.0 | 6.4 | 0.00 | 0.00 | 0.00 | 77 | 1011.0 |
| 20260506185223 | 27 | 79 | 0.0 | 4.8 | 0.00 | 0.00 | 0.00 | 78 | 1012.0 |
| 20260506184724 | 27 | 7 | 3.2 | 4.8 | 0.00 | 0.00 | 0.00 | 78 | 1012.0 |
| 20260506184223 | 27 | 91 | 1.6 | 4.8 | 0.00 | 0.00 | 0.00 | 79 | 1012.0 |
| 20260506183723 | 27 | 44 | 9.7 | 9.7 | 0.00 | 0.00 | 0.00 | 76 | 1012.0 |
| 20260506183224 | 27 | 32 | 6.4 | 8.0 | 0.00 | 0.00 | 0.00 | 77 | 1012.0 |
| 20260506182724 | 28 | 94 | 3.2 | 8.0 | 0.00 | 0.00 | 0.00 | 72 | 1012.0 |
| 20260506182223 | 28 | 134 | 11.3 | 11.3 | 0.00 | 0.00 | 0.00 | 72 | 1012.0 |
| 20260506181725 | 27 | 115 | 3.2 | 4.8 | 0.00 | 0.00 | 0.00 | 78 | 1012.0 |
| 20260506181224 | 27 | 113 | 4.8 | 6.4 | 0.00 | 0.00 | 0.00 | 75 | 1012.0 |
| 20260506180723 | 27 | 80 | 3.2 | 4.8 | 0.00 | 0.00 | 0.00 | 77 | 1012.0 |
| 20260506180224 | 27 | 139 | 3.2 | 4.8 | 0.00 | 0.00 | 0.00 | 77 | 1012.0 |
| 20260506175724 | 27 | 56 | 0.0 | 4.8 | 0.00 | 0.00 | 0.00 | 76 | 1012.0 |
| 20260506175224 | 27 | 82 | 0.0 | 6.4 | 0.00 | 0.00 | 0.00 | 78 | 1012.0 |
| 20260506174729 | 27 | 2 | 0.0 | 8.0 | 0.00 | 0.00 | 0.00 | 79 | 1012.0 |
| 20260506174223 | 27 | 77 | 1.6 | 4.8 | 0.00 | 0.00 | 0.00 | 80 | 1012.0 |
| 20260506173724 | 26 | 171 | 0.0 | 4.8 | 0.00 | 0.00 | 0.00 | 82 | 1012.0 |
| 20260506173224 | 26 | 50 | 4.8 | 8.0 | 0.00 | 0.00 | 0.00 | 83 | 1012.0 |
| 20260506172724 | 26 | 61 | 3.2 | 4.8 | 0.00 | 0.00 | 0.00 | 84 | 1012.0 |
| 20260506172223 | 26 | 59 | 3.2 | 4.8 | 0.00 | 0.00 | 0.00 | 86 | 1012.0 |
| 20260506171723 | 25 | 54 | 3.2 | 4.8 | 0.00 | 0.00 | 0.00 | 88 | 1012.0 |
| 20260506171223 | 25 | 109 | 3.2 | 4.8 | 0.00 | 0.00 | 0.00 | 89 | 1013.0 |
| 20260506170723 | 25 | 86 | 1.6 | 6.4 | 0.00 | 0.00 | 0.00 | 90 | 1012.0 |
| 20260506170223 | 25 | 89 | 3.2 | 4.8 | 0.00 | 0.00 | 0.00 | 91 | 1012.0 |
| 20260506165723 | 25 | 102 | 4.8 | 4.8 | 0.00 | 0.00 | 0.00 | 92 | 1013.0 |
| 20260506165223 | 24 | 72 | 3.2 | 4.8 | 0.00 | 0.00 | 0.00 | 93 | 1012.0 |
| 20260506164723 | 25 | 59 | 3.2 | 4.8 | 0.00 | 0.00 | 0.00 | 94 | 1013.0 |
| 20260506164223 | 24 | 82 | 1.6 | 3.2 | 0.00 | 0.00 | 0.00 | 95 | 1013.0 |
| 20260506163723 | 23 | 61 | 4.8 | 4.8 | 0.00 | 0.00 | 0.00 | 95 | 1013.0 |
| 20260506163227 | 23 | 67 | 4.8 | 4.8 | 0.05 | 0.00 | 0.00 | 96 | 1013.0 |
| 20260506162723 | 23 | 52 | 6.4 | 8.0 | 0.05 | 0.00 | 0.00 | 96 | 1013.0 |
| 20260506162224 | 24 | 62 | 3.2 | 4.8 | 0.00 | 0.00 | 0.00 | 96 | 1013.0 |
| 20260506161723 | 23 | 41 | 3.2 | 6.4 | 0.00 | 0.00 | 0.00 | 96 | 1013.0 |
| 20260506161224 | 24 | 84 | 3.2 | 6.4 | 0.00 | 0.00 | 0.00 | 95 | 1013.0 |
| 20260506160724 | 24 | 55 | 3.2 | 4.8 | 0.00 | 0.00 | 0.00 | 95 | 1013.0 |
| 20260506160224 | 24 | 49 | 3.2 | 3.2 | 0.00 | 0.00 | 0.00 | 94 | 1013.0 |
| 20260506155723 | 25 | 156 | 0.0 | 3.2 | 0.00 | 0.00 | 0.00 | 93 | 1013.0 |
| 20260506155224 | 24 | 83 | 3.2 | 3.2 | 0.00 | 0.00 | 0.00 | 93 | 1012.0 |
| 20260506154724 | 23 | 75 | 0.0 | 3.2 | 0.00 | 0.00 | 0.00 | 93 | 1013.0 |
| 20260506154223 | 24 | 60 | 3.2 | 3.2 | 0.00 | 0.00 | 0.00 | 93 | 1012.0 |
| 20260506153726 | 24 | 88 | 1.6 | 4.8 | 0.00 | 0.00 | 0.00 | 94 | 1012.0 |
| 20260506153223 | 23 | 127 | 1.6 | 3.2 | 0.00 | 0.00 | 0.00 | 94 | 1012.0 |
| 20260506152724 | 24 | 71 | 3.2 | 4.8 | 0.00 | 0.00 | 0.00 | 94 | 1012.0 |
| 20260506152223 | 24 | 72 | 3.2 | 4.8 | 0.00 | 0.00 | 0.00 | 93 | 1012.0 |
| 20260506151723 | 24 | 185 | 0.0 | 3.2 | 0.00 | 0.00 | 0.00 | 94 | 1012.0 |
| 20260506151224 | 24 | 154 | 0.0 | 3.2 | 0.00 | 0.00 | 0.00 | 94 | 1012.0 |
| 20260506150725 | 24 | 40 | 0.0 | 3.2 | 0.00 | 0.00 | 0.00 | 94 | 1012.0 |
| 20260506150225 | 23 | 29 | 0.0 | 1.6 | 0.00 | 0.00 | 0.00 | 95 | 1012.0 |
| 20260506145724 | 23 | 84 | 1.6 | 1.6 | 0.00 | 0.00 | 0.00 | 95 | 1012.0 |
| 20260506145224 | 23 | 44 | 0.0 | 3.2 | 0.00 | 0.00 | 0.00 | 95 | 1012.0 |
| 20260506144723 | 23 | 80 | 1.6 | 3.2 | 0.00 | 0.00 | 0.00 | 95 | 1012.0 |
| 20260506144224 | 23 | 61 | 3.2 | 4.8 | 0.00 | 0.00 | 0.00 | 95 | 1012.0 |
| 20260506143723 | 23 | 89 | 3.2 | 3.2 | 0.00 | 0.00 | 0.00 | 95 | 1012.0 |
| 20260506143223 | 23 | 76 | 3.2 | 3.2 | 0.00 | 0.00 | 0.00 | 95 | 1012.0 |
| 20260506142723 | 23 | 73 | 1.6 | 4.8 | 0.00 | 0.00 | 0.00 | 95 | 1011.0 |
| 20260506142223 | 23 | 94 | 1.6 | 4.8 | 0.00 | 0.00 | 0.00 | 94 | 1011.0 |
| 20260506141724 | 23 | 66 | 3.2 | 4.8 | 0.00 | 0.00 | 0.00 | 94 | 1011.0 |
| 20260506141224 | 23 | 85 | 1.6 | 3.2 | 0.00 | 0.00 | 0.00 | 94 | 1011.0 |
| 20260506140723 | 23 | 123 | 1.6 | 4.8 | 0.00 | 0.00 | 0.00 | 94 | 1010.0 |
| 20260506140225 | 23 | 114 | 1.6 | 3.2 | 0.00 | 0.00 | 0.00 | 94 | 1011.0 |
| 20260506135724 | 23 | 76 | 1.6 | 3.2 | 0.00 | 0.00 | 0.00 | 94 | 1010.0 |
| 20260506135224 | 23 | 111 | 1.6 | 4.8 | 0.00 | 0.00 | 0.00 | 95 | 1010.0 |
| 20260506134724 | 23 | 101 | 3.2 | 4.8 | 0.00 | 0.00 | 0.00 | 95 | 1010.0 |
| 20260506134224 | 23 | 115 | 1.6 | 3.2 | 0.00 | 0.00 | 0.00 | 95 | 1010.0 |
| 20260506133723 | 23 | 91 | 3.2 | 4.8 | 0.00 | 0.00 | 0.00 | 95 | 1010.0 |
| 20260506133224 | 23 | 117 | 3.2 | 4.8 | 0.00 | 0.00 | 0.00 | 95 | 1010.0 |
| 20260506132723 | 23 | 82 | 6.4 | 6.4 | 0.00 | 0.00 | 0.00 | 95 | 1010.0 |
| 20260506132223 | 23 | 124 | 4.8 | 4.8 | 0.00 | 0.00 | 0.00 | 95 | 1010.0 |
| 20260506131724 | 23 | 139 | 4.8 | 4.8 | 0.00 | 0.00 | 0.00 | 95 | 1010.0 |
| 20260506131224 | 23 | 102 | 3.2 | 4.8 | 0.00 | 0.00 | 0.00 | 95 | 1010.0 |
| 20260506130727 | 23 | 74 | 3.2 | 6.4 | 0.00 | 0.00 | 0.00 | 95 | 1010.0 |
| 20260506130223 | 23 | 85 | 3.2 | 4.8 | 0.00 | 0.00 | 0.00 | 95 | 1010.0 |
| 20260506125724 | 23 | 67 | 3.2 | 3.2 | 0.00 | 0.00 | 0.00 | 96 | 1010.0 |
| 20260506125224 | 23 | 55 | 3.2 | 4.8 | 0.00 | 0.00 | 0.00 | 96 | 1010.0 |
| 20260506124723 | 23 | 110 | 1.6 | 4.8 | 0.00 | 0.00 | 0.00 | 96 | 1010.0 |
| 20260506124223 | 23 | 98 | 3.2 | 4.8 | 0.00 | 0.00 | 0.00 | 96 | 1010.0 |
| 20260506123724 | 23 | 156 | 4.8 | 6.4 | 0.00 | 0.00 | 0.00 | 96 | 1010.0 |
| 20260506123224 | 23 | 94 | 1.6 | 4.8 | 0.00 | 0.00 | 0.00 | 96 | 1010.0 |
| 20260506122723 | 23 | 80 | 3.2 | 3.2 | 0.00 | 0.00 | 0.00 | 96 | 1010.0 |
| 20260506122224 | 23 | 138 | 4.8 | 6.4 | 0.00 | 0.00 | 0.00 | 96 | 1010.0 |
| 20260506121723 | 23 | 89 | 0.0 | 4.8 | 0.00 | 0.00 | 0.00 | 96 | 1010.0 |
| 20260506121223 | 23 | 124 | 4.8 | 4.8 | 0.00 | 0.00 | 0.00 | 96 | 1010.0 |
| 20260506120723 | 23 | 116 | 4.8 | 4.8 | 0.00 | 0.00 | 0.00 | 96 | 1010.0 |
| 20260506120224 | 23 | 172 | 9.7 | 9.7 | 0.00 | 0.00 | 0.00 | 96 | 1010.0 |
| 20260506115724 | 23 | 135 | 4.8 | 6.4 | 0.00 | 0.00 | 0.00 | 96 | 1010.0 |
| 20260506115223 | 23 | 130 | 6.4 | 6.4 | 0.00 | 0.00 | 0.00 | 96 | 1010.0 |
| 20260506114723 | 23 | 146 | 6.4 | 9.7 | 0.00 | 0.00 | 0.00 | 95 | 1010.0 |
| 20260506114223 | 23 | 109 | 3.2 | 6.4 | 0.00 | 0.00 | 0.00 | 96 | 1010.0 |
| 20260506113724 | 23 | 150 | 4.8 | 9.7 | 0.00 | 0.00 | 0.00 | 95 | 1009.0 |
| 20260506113224 | 23 | 137 | 4.8 | 9.7 | 0.00 | 0.00 | 0.00 | 95 | 1010.0 |
| 20260506112725 | 23 | 139 | 8.0 | 8.0 | 0.00 | 0.00 | 0.00 | 95 | 1009.0 |
| 20260506112226 | 23 | 121 | 4.8 | 9.7 | 0.00 | 0.00 | 0.00 | 95 | 1010.0 |
| 20260506111726 | 23 | 115 | 3.2 | 4.8 | 0.00 | 0.00 | 0.00 | 95 | 1009.0 |
| 20260506111226 | 23 | 112 | 0.0 | 4.8 | 0.00 | 0.00 | 0.00 | 95 | 1010.0 |
| 20260506110724 | 23 | 162 | 4.8 | 6.4 | 0.00 | 0.00 | 0.00 | 95 | 1010.0 |
| 20260506110228 | 23 | 162 | 4.8 | 8.0 | 0.00 | 0.00 | 0.00 | 95 | 1009.0 |
| 20260506105725 | 23 | 121 | 3.2 | 4.8 | 0.00 | 0.00 | 0.00 | 95 | 1009.0 |
| 20260506105223 | 23 | 158 | 1.6 | 4.8 | 0.00 | 0.00 | 0.00 | 95 | 1009.0 |
| 20260506104723 | 23 | 129 | 4.8 | 4.8 | 0.00 | 0.00 | 0.00 | 95 | 1010.0 |
| 20260506104223 | 23 | 129 | 3.2 | 4.8 | 0.00 | 0.00 | 0.00 | 95 | 1010.0 |
| 20260506103725 | 23 | 136 | 3.2 | 3.2 | 0.00 | 0.00 | 0.00 | 95 | 1010.0 |
| 20260506103225 | 23 | 129 | 3.2 | 4.8 | 0.00 | 0.00 | 0.00 | 95 | 1009.0 |
| 20260506102725 | 23 | 151 | 6.4 | 6.4 | 0.00 | 0.00 | 0.00 | 95 | 1009.0 |
| 20260506102223 | 23 | 157 | 6.4 | 6.4 | 0.00 | 0.00 | 0.00 | 95 | 1009.0 |
| 20260506101723 | 23 | 143 | 3.2 | 4.8 | 0.00 | 0.00 | 0.00 | 95 | 1009.0 |
| 20260506101225 | 23 | 175 | 4.8 | 8.0 | 0.00 | 0.00 | 0.00 | 95 | 1009.0 |
| 20260506100725 | 23 | 139 | 8.0 | 8.0 | 0.00 | 0.00 | 0.00 | 95 | 1009.0 |
| 20260506100225 | 23 | 138 | 6.4 | 6.4 | 0.00 | 0.00 | 0.00 | 95 | 1009.0 |
| 20260506095724 | 23 | 159 | 8.0 | 9.7 | 0.00 | 0.00 | 0.00 | 95 | 1009.0 |
| 20260506095224 | 23 | 123 | 3.2 | 4.8 | 0.00 | 0.00 | 0.00 | 95 | 1009.0 |
| 20260506094723 | 23 | 160 | 3.2 | 9.7 | 0.00 | 0.00 | 0.00 | 95 | 1009.0 |
| 20260506094223 | 23 | 175 | 3.2 | 9.7 | 0.00 | 0.00 | 0.00 | 95 | 1009.0 |
| 20260506093723 | 23 | 154 | 4.8 | 8.0 | 0.00 | 0.00 | 0.00 | 94 | 1009.0 |
| 20260506093223 | 23 | 166 | 8.0 | 12.9 | 0.00 | 0.00 | 0.00 | 94 | 1008.0 |
| 20260506092723 | 23 | 148 | 11.3 | 17.7 | 0.00 | 0.00 | 0.00 | 94 | 1009.0 |
| 20260506092224 | 23 | 148 | 6.4 | 9.7 | 0.00 | 0.00 | 0.00 | 94 | 1009.0 |
| 20260506091723 | 23 | 126 | 9.7 | 14.5 | 0.00 | 0.00 | 0.00 | 94 | 1009.0 |
| 20260506091226 | 23 | 176 | 8.0 | 9.7 | 0.00 | 0.00 | 0.00 | 94 | 1009.0 |
| 20260506090725 | 23 | 119 | 4.8 | 9.7 | 0.00 | 0.00 | 0.00 | 93 | 1009.0 |
| 20260506090224 | 23 | 156 | 6.4 | 8.0 | 0.00 | 0.00 | 0.00 | 93 | 1009.0 |
| 20260506085723 | 23 | 134 | 6.4 | 9.7 | 0.00 | 0.00 | 0.00 | 93 | 1009.0 |
| 20260506085224 | 23 | 138 | 14.5 | 14.5 | 0.00 | 0.00 | 0.00 | 93 | 1009.0 |
| 20260506084723 | 23 | 160 | 4.8 | 9.7 | 0.00 | 0.00 | 0.00 | 93 | 1009.0 |
| 20260506084223 | 23 | 127 | 6.4 | 11.3 | 0.00 | 0.00 | 0.00 | 93 | 1009.0 |
| 20260506083724 | 23 | 120 | 4.8 | 9.7 | 0.00 | 0.00 | 0.00 | 93 | 1009.0 |
| 20260506083223 | 23 | 109 | 4.8 | 9.7 | 0.00 | 0.00 | 0.00 | 93 | 1009.0 |
| 20260506082723 | 23 | 167 | 4.8 | 12.9 | 0.00 | 0.00 | 0.00 | 92 | 1009.0 |
| 20260506082223 | 23 | 146 | 8.0 | 9.7 | 0.00 | 0.00 | 0.00 | 92 | 1009.0 |
| 20260506081723 | 24 | 150 | 11.3 | 11.3 | 0.00 | 0.00 | 0.00 | 92 | 1009.0 |
| 20260506081223 | 24 | 153 | 4.8 | 9.7 | 0.00 | 0.00 | 0.00 | 92 | 1009.0 |
| 20260506080724 | 24 | 152 | 8.0 | 12.9 | 0.00 | 0.00 | 0.00 | 92 | 1009.0 |
| 20260506080223 | 24 | 131 | 12.9 | 16.1 | 0.00 | 0.00 | 0.00 | 92 | 1009.0 |
| 20260506073223 | 24 | 154 | 4.8 | 11.3 | 0.00 | 0.00 | 0.00 | 92 | 1009.0 |
| 20260506072723 | 24 | 149 | 6.4 | 14.5 | 0.00 | 0.00 | 0.00 | 91 | 1009.0 |
| 20260506072224 | 24 | 130 | 14.5 | 16.1 | 0.00 | 0.00 | 0.00 | 91 | 1009.0 |
| 20260506071727 | 24 | 133 | 9.7 | 11.3 | 0.00 | 0.00 | 0.00 | 92 | 1009.0 |
| 20260506071224 | 24 | 161 | 4.8 | 9.7 | 0.00 | 0.00 | 0.00 | 92 | 1009.0 |
| 20260506070723 | 24 | 145 | 9.7 | 12.9 | 0.00 | 0.00 | 0.00 | 92 | 1009.0 |
| 20260506070223 | 24 | 103 | 3.2 | 11.3 | 0.00 | 0.00 | 0.00 | 92 | 1009.0 |
| 20260506062223 | 24 | 141 | 6.4 | 17.7 | 0.00 | 0.00 | 0.00 | 92 | 1010.0 |
| 20260506061723 | 24 | 147 | 4.8 | 9.7 | 0.00 | 0.00 | 0.00 | 92 | 1009.0 |
| 20260506061223 | 24 | 120 | 9.7 | 17.7 | 0.00 | 0.00 | 0.00 | 92 | 1009.0 |
| 20260506060723 | 24 | 114 | 4.8 | 12.9 | 0.00 | 0.00 | 0.00 | 91 | 1009.0 |
| 20260506060223 | 24 | 130 | 6.4 | 17.7 | 0.00 | 0.00 | 0.00 | 91 | 1009.0 |
| 20260506051223 | 24 | 116 | 3.2 | 8.0 | 0.00 | 0.00 | 0.00 | 91 | 1009.0 |
| 20260506050724 | 24 | 106 | 4.8 | 9.7 | 0.00 | 0.00 | 0.00 | 91 | 1009.0 |
| 20260506050224 | 24 | 139 | 11.3 | 12.9 | 0.00 | 0.00 | 0.00 | 91 | 1009.0 |
| 20260506044723 | 25 | 102 | 4.8 | 9.7 | 0.00 | 0.00 | 0.00 | 90 | 1009.0 |
| 20260506044224 | 25 | 114 | 6.4 | 12.9 | 0.00 | 0.00 | 0.00 | 90 | 1010.0 |
| 20260506043724 | 25 | 120 | 4.8 | 11.3 | 0.00 | 0.00 | 0.00 | 90 | 1010.0 |
| 20260506043224 | 25 | 106 | 6.4 | 11.3 | 0.00 | 0.00 | 0.00 | 90 | 1010.0 |
| 20260506042723 | 25 | 111 | 4.8 | 9.7 | 0.00 | 0.00 | 0.00 | 90 | 1010.0 |
| 20260506042223 | 25 | 121 | 4.8 | 16.1 | 0.00 | 0.00 | 0.00 | 90 | 1009.0 |
| 20260506041724 | 25 | 116 | 9.7 | 14.5 | 0.00 | 0.00 | 0.00 | 90 | 1009.0 |
| 20260506041224 | 25 | 166 | 6.4 | 14.5 | 0.00 | 0.00 | 0.00 | 90 | 1009.0 |
| 20260506040723 | 25 | 142 | 6.4 | 11.3 | 0.00 | 0.00 | 0.00 | 90 | 1009.0 |
| 20260506040224 | 25 | 113 | 4.8 | 11.3 | 0.00 | 0.00 | 0.00 | 90 | 1009.0 |
| 20260506035724 | 25 | 144 | 11.3 | 14.5 | 0.00 | 0.00 | 0.00 | 90 | 1009.0 |
| 20260506035223 | 25 | 139 | 8.0 | 14.5 | 0.00 | 0.00 | 0.00 | 90 | 1009.0 |
| 20260506034723 | 25 | 129 | 4.8 | 8.0 | 0.00 | 0.00 | 0.00 | 90 | 1009.0 |
| 20260506034223 | 25 | 136 | 9.7 | 9.7 | 0.00 | 0.00 | 0.00 | 90 | 1009.0 |
| 20260506033724 | 25 | 82 | 4.8 | 11.3 | 0.00 | 0.00 | 0.00 | 90 | 1009.0 |
| 20260506033223 | 25 | 116 | 3.2 | 8.0 | 0.00 | 0.00 | 0.00 | 90 | 1009.0 |
| 20260506032723 | 25 | 137 | 8.0 | 12.9 | 0.00 | 0.00 | 0.00 | 89 | 1009.0 |
| 20260506032223 | 25 | 114 | 6.4 | 12.9 | 0.00 | 0.00 | 0.00 | 89 | 1009.0 |
| 20260506031723 | 25 | 104 | 4.8 | 9.7 | 0.00 | 0.00 | 0.00 | 89 | 1009.0 |
| 20260506031223 | 25 | 95 | 4.8 | 11.3 | 0.00 | 0.00 | 0.00 | 89 | 1009.0 |
| 20260506030723 | 25 | 142 | 8.0 | 11.3 | 0.00 | 0.00 | 0.00 | 88 | 1008.0 |
| 20260506030223 | 25 | 133 | 12.9 | 14.5 | 0.00 | 0.00 | 0.00 | 88 | 1008.0 |
| 20260506025724 | 25 | 124 | 4.8 | 9.7 | 0.00 | 0.00 | 0.00 | 88 | 1008.0 |
| 20260506025223 | 25 | 139 | 16.1 | 17.7 | 0.00 | 0.00 | 0.00 | 88 | 1008.0 |
| 20260506024234 | 25 | 160 | 12.9 | 19.3 | 0.00 | 0.00 | 0.00 | 87 | 1008.0 |
| 20260506023723 | 26 | 108 | 6.4 | 19.3 | 0.00 | 0.00 | 0.00 | 86 | 1008.0 |
| 20260506023224 | 26 | 106 | 4.8 | 16.1 | 0.00 | 0.00 | 0.00 | 86 | 1008.0 |
| 20260506022723 | 26 | 125 | 14.5 | 19.3 | 0.00 | 0.00 | 0.00 | 85 | 1008.0 |
| 20260506022225 | 26 | 123 | 12.9 | 19.3 | 0.00 | 0.00 | 0.00 | 85 | 1008.0 |
| 20260506021723 | 26 | 132 | 14.5 | 16.1 | 0.00 | 0.00 | 0.00 | 84 | 1008.0 |
| 20260506021226 | 26 | 117 | 11.3 | 11.3 | 0.00 | 0.00 | 0.00 | 84 | 1008.0 |
| 20260506020723 | 26 | 153 | 6.4 | 16.1 | 0.00 | 0.00 | 0.00 | 84 | 1008.0 |
| 20260506020223 | 27 | 128 | 4.8 | 6.4 | 0.00 | 0.00 | 0.00 | 83 | 1008.0 |
| 20260506015723 | 27 | 115 | 6.4 | 11.3 | 0.00 | 0.00 | 0.00 | 83 | 1008.0 |
| 20260506015224 | 27 | 123 | 8.0 | 19.3 | 0.00 | 0.00 | 0.00 | 82 | 1008.0 |
| 20260506014723 | 27 | 143 | 6.4 | 11.3 | 0.00 | 0.00 | 0.00 | 82 | 1007.0 |
| 20260506014223 | 27 | 134 | 8.0 | 9.7 | 0.00 | 0.00 | 0.00 | 81 | 1007.0 |
| 20260506013723 | 27 | 100 | 4.8 | 16.1 | 0.00 | 0.00 | 0.00 | 80 | 1007.0 |
| 20260506013224 | 27 | 123 | 3.2 | 12.9 | 0.00 | 0.00 | 0.00 | 79 | 1007.0 |
| 20260506012723 | 27 | 120 | 4.8 | 14.5 | 0.00 | 0.00 | 0.00 | 78 | 1007.0 |
| 20260506012224 | 28 | 113 | 4.8 | 8.0 | 0.00 | 0.00 | 0.00 | 78 | 1007.0 |
| 20260506011724 | 28 | 101 | 4.8 | 4.8 | 0.00 | 0.00 | 0.00 | 77 | 1007.0 |
| 20260506011225 | 28 | 134 | 8.0 | 9.7 | 0.00 | 0.00 | 0.00 | 76 | 1007.0 |
| 20260506010723 | 28 | 112 | 4.8 | 8.0 | 0.00 | 0.00 | 0.00 | 76 | 1007.0 |
| 20260506010223 | 28 | 119 | 3.2 | 4.8 | 0.00 | 0.00 | 0.00 | 76 | 1007.0 |
| 20260506005724 | 28 | 141 | 0.0 | 4.8 | 0.00 | 0.00 | 0.00 | 76 | 1007.0 |
| 20260506005224 | 28 | 141 | 1.6 | 4.8 | 0.00 | 0.00 | 0.00 | 75 | 1007.0 |
| 20260506004724 | 28 | 111 | 3.2 | 6.4 | 0.00 | 0.00 | 0.00 | 75 | 1007.0 |
| 20260506004224 | 28 | 130 | 6.4 | 11.3 | 0.00 | 0.00 | 0.00 | 74 | 1007.0 |
| 20260506003723 | 29 | 115 | 1.6 | 6.4 | 0.00 | 0.00 | 0.00 | 74 | 1007.0 |
| 20260506003223 | 28 | 106 | 1.6 | 9.7 | 0.00 | 0.00 | 0.00 | 74 | 1007.0 |
| 20260506002724 | 29 | 78 | 3.2 | 8.0 | 0.00 | 0.00 | 0.00 | 73 | 1007.0 |
| 20260506002223 | 29 | 163 | 4.8 | 8.0 | 0.00 | 0.00 | 0.00 | 73 | 1007.0 |
| 20260506001723 | 29 | 198 | 3.2 | 6.4 | 0.00 | 0.00 | 0.00 | 72 | 1007.0 |
| 20260506001223 | 29 | 127 | 4.8 | 8.0 | 0.00 | 0.00 | 0.00 | 72 | 1007.0 |
| 20260506000724 | 29 | 152 | 4.8 | 9.7 | 0.00 | 0.00 | 0.00 | 72 | 1007.0 |
| 20260506000223 | 30 | 127 | 1.6 | 9.7 | 0.00 | 0.00 | 0.00 | 71 | 1007.0 |
| 20260505235724 | 30 | 164 | 4.8 | 6.4 | 0.00 | 0.00 | 0.00 | 71 | 1007.0 |
| 20260505235223 | 30 | 104 | 4.8 | 8.0 | 0.00 | 0.00 | 0.00 | 71 | 1006.0 |
| 20260505234723 | 30 | 166 | 4.8 | 16.1 | 0.00 | 0.00 | 0.00 | 72 | 1007.0 |
| 20260505234223 | 30 | 106 | 4.8 | 9.7 | 0.00 | 0.00 | 0.00 | 71 | 1006.0 |
| 20260505233723 | 29 | 155 | 3.2 | 6.4 | 0.00 | 0.00 | 0.00 | 72 | 1006.0 |
| 20260505233223 | 29 | 142 | 8.0 | 14.5 | 0.00 | 0.00 | 0.00 | 72 | 1006.0 |
| 20260505232724 | 29 | 101 | 4.8 | 11.3 | 0.00 | 0.00 | 0.00 | 72 | 1007.0 |
| 20260505232223 | 30 | 147 | 9.7 | 17.7 | 0.00 | 0.00 | 0.00 | 72 | 1007.0 |
| 20260505231723 | 30 | 92 | 3.2 | 16.1 | 0.00 | 0.00 | 0.00 | 70 | 1006.0 |
| 20260505231223 | 30 | 151 | 9.7 | 14.5 | 0.00 | 0.00 | 0.00 | 69 | 1007.0 |
| 20260505230724 | 30 | 165 | 3.2 | 8.0 | 0.00 | 0.00 | 0.00 | 70 | 1007.0 |
| 20260505230223 | 29 | 174 | 1.6 | 8.0 | 0.00 | 0.00 | 0.00 | 71 | 1007.0 |
| 20260505225725 | 29 | 146 | 4.8 | 12.9 | 0.00 | 0.00 | 0.00 | 71 | 1007.0 |
| 20260505225223 | 30 | 130 | 4.8 | 12.9 | 0.00 | 0.00 | 0.00 | 71 | 1007.0 |
| 20260505224723 | 30 | 127 | 8.0 | 12.9 | 0.00 | 0.00 | 0.00 | 71 | 1007.0 |